This is the latest recevied weather packets stored in our database for station/object K0VSC-1. If no packets are shown the sender has not sent any weather packets the latest 10 day(s).
| Time | Temp. | Humidity | Pressure | Rain* | Wind** | Luminosity | Snow |
|---|---|---|---|---|---|---|---|
| 1777661295 | 8.33° C | 42% | 1019.8 hPa | 0 mm | - | 227 W/m² | - |
| 1777660995 | 8.33° C | 45% | 1019.8 hPa | 0 mm | - | 248 W/m² | - |
| 1777660695 | 8.33° C | 42% | 1019.8 hPa | 0 mm | - | 1014 W/m² | - |
| 1777660395 | 8.33° C | 45% | 1019.8 hPa | 0 mm | - | 983 W/m² | - |
| 1777660095 | 8.33° C | 45% | 1019.9 hPa | 0 mm | - | 930 W/m² | - |
| 1777659795 | 7.78° C | 47% | 1020.1 hPa | 0 mm | - | 939 W/m² | - |
| 1777659495 | 7.78° C | 46% | 1020.1 hPa | 0 mm | - | 983 W/m² | - |
| 1777659195 | 7.78° C | 47% | 1020.2 hPa | 0 mm | - | 271 W/m² | - |
| 1777658895 | 7.78° C | 48% | 1020.1 hPa | 0 mm | - | 315 W/m² | - |
| 1777658595 | 7.78° C | 51% | 1020.1 hPa | 0 mm | - | 292 W/m² | - |
| 1777658295 | 7.22° C | 46% | 1020.1 hPa | 0 mm | - | 274 W/m² | - |
| 1777657995 | 7.78° C | 46% | 1020.2 hPa | 0 mm | - | 213 W/m² | - |
| 1777657695 | 7.22° C | 47% | 1020.1 hPa | 0 mm | - | 1018 W/m² | - |
| 1777657396 | 7.22° C | 45% | 1020.3 hPa | 0 mm | - | 995 W/m² | - |
| 1777657095 | 7.22° C | 49% | 1020.3 hPa | 0 mm | - | 977 W/m² | - |
| 1777656795 | 7.22° C | 44% | 1020.3 hPa | 0 mm | - | 316 W/m² | - |
| 1777656496 | 7.22° C | 45% | 1020.2 hPa | 0 mm | - | 322 W/m² | - |
| 1777656195 | 7.78° C | 43% | 1020.3 hPa | 0 mm | - | 374 W/m² | - |
| 1777655895 | 7.78° C | 52% | 1020.4 hPa | 0 mm | - | 904 W/m² | - |
| 1777655600 | 6.67° C | 52% | 1020.4 hPa | 0 mm | - | 889 W/m² | - |
| 1777655296 | 6.67° C | 49% | 1020.5 hPa | 0 mm | - | 211 W/m² | - |
| 1777654996 | 6.67° C | 52% | 1020.5 hPa | 0 mm | - | 292 W/m² | - |
| 1777654695 | 6.11° C | 51% | 1020.5 hPa | 0 mm | - | 311 W/m² | - |
| 1777654395 | 6.67° C | 50% | 1020.5 hPa | 0 mm | - | 299 W/m² | - |
| 1777654096 | 6.67° C | 49% | 1020.5 hPa | 0 mm | - | 322 W/m² | - |
* Rain latest hour (hover to see other rain measurements)
** Current wind speed in m/s (hover to see current wind gust speed)